Temp
71 72 73 74 74 74 74 74 74 74 75 75 75 75 75 75 75 75 75 75 76 77 77 77 76 76 76 75 75 74 74 73 73 74 75 75 76 76 75 74 74 74 75
72 73 73 73 74 74 74 74 74 74 75 75 75 74 74 75 75 75 75 75 76 76 77 76 76 76 75 74 73 73 73 72 72 73 75 75 76 76 75 74 73 73 74
71 73 73 73 74 74 74 74 74 75 75 75 74 74 74 74 74 74 74 75 75 76 76 76 76 76 75 73 73 73 73 73 72 73 73 68 70 75 75 74 73 74 74
71 73 73 73 73 74 74 74 74 75 75 75 74 74 74 74 74 74 74 74 75 76 76 76 76 75 73 72 72 72 73 72 71 71 68 70 73 75 74 74 74 74 73
71 72 73 73 73 73 73 73 73 74 74 74 74 75 75 75 75 74 74 74 75 76 76 75 75 74 72 71 71 72 72 71 70 69 64 67 68 74 74 73 72 72 72
70 72 71 72 72 73 73 73 73 73 73 73 73 74 74 74 74 74 73 74 75 75 75 74 73 73 71 71 71 71 70 70 68 62 64 68 69 75 74 73 72 72 71
68 70 71 71 72 73 73 73 72 72 72 72 73 73 73 74 73 73 73 73 73 74 73 73 72 72 71 71 71 70 69 69 65 62 62 65 68 75 75 73 72 72 72
67 69 69 70 69 70 71 71 71 71 71 71 72 72 73 72 72 72 72 72 72 72 71 71 71 71 71 71 70 69 68 69 66 63 64 64 71 74 74 73 72 71 72
65 66 65 65 67 67 67 69 69 70 70 71 71 71 71 71 71 71 71 71 71 71 71 72 71 71 71 70 70 68 68 67 62 63 67 63 72 74 73 72 71 71 70
64 64 63 64 65 66 67 68 69 69 69 70 70 70 69 70 71 71 71 71 71 71 71 72 71 71 71 70 69 68 67 66 61 60 60 63 72 73 72 71 70 70 70
64 65 63 64 66 66 66 69 69 70 70 69 69 69 67 67 68 69 68 70 70 69 70 71 71 69 68 68 68 67 66 61 60 59 59 69 72 73 72 71 70 69 68
61 61 64 65 65 66 71 66 65 68 66 66 67 67 66 66 66 68 68 69 69 70 69 69 68 68 66 63 62 65 61 61 59 59 59 68 72 73 72 70 69 68 68
61 61 63 64 66 68 68 64 64 64 64 66 66 66 65 66 64 64 63 62 62 66 65 65 64 63 63 61 60 60 60 60 57 58 61 67 70 72 71 70 69 68 67
62 62 63 65 66 66 66 65 64 65 65 65 66 67 64 62 62 61 60 60 61 60 60 60 60 61 61 61 61 60 59 57 57 57 57 65 68 70 71 70 68 67 66
63 64 65 66 67 66 65 64 65 65 66 66 66 66 63 61 60 60 59 59 59 60 60 58 58 58 58 59 59 59 58 57 57 56 54 62 64 68 69 69 68 67 66
65 66 66 66 66 67 66 65 64 65 64 63 62 62 62 61 58 58 58 59 58 57 57 56 56 56 55 56 57 56 56 56 56 55 54 53 61 65 67 67 67 66 66
68 67 65 64 66 65 64 63 62 64 62 61 61 61 61 60 58 58 57 57 56 56 56 55 55 54 54 56 54 55 55 54 54 54 54 57 53 61 63 65 65 65 65
68 66 66 71 64 63 62 60 61 60 59 59 59 59 60 60 59 57 56 56 55 55 54 53 53 53 52 51 50 51 51 53 53 53 53 52 52 54 57 61 62 63 62
67 64 64 63 62 61 60 61 60 59 59 58 57 57 59 59 59 56 55 54 55 54 53 53 52 51 49 50 53 50 49 48 49 53 51 51 50 50 52 59 59 60 61
66 64 65 63 61 61 61 59 58 57 56 57 57 57 59 58 58 56 55 54 54 53 52 51 50 50 49 48 55 51 47 46 46 45 47 51 49 48 49 50 48 53 59
61 65 65 62 61 62 61 59 55 54 55 55 57 58 57 57 57 55 53 53 52 52 50 50 48 48 47 46 45 44 44 44 44 44 45 44 46 47 47 47 46 45 47
64 65 64 64 62 63 64 60 57 58 54 55 55 56 57 56 56 55 52 51 50 50 49 48 47 46 44 44 42 40 37 41 43 44 43 44 41 44 45 47 46 46 45
64 65 65 65 63 64 62 59 56 55 54 53 52 53 54 55 55 52 51 49 48 47 46 45 45 45 43 42 42 41 35 33 35 40 41 40 41 41 41 42 45 45 44
64 67 66 66 64 64 63 61 60 59 56 52 51 51 52 53 52 52 50 48 47 46 45 44 46 42 42 40 40 45 40 40 34 31 37 38 40 42 40 39 41 42 43
64 63 65 64 61 63 62 63 59 52 52 50 49 49 49 49 50 51 49 48 46 45 44 43 43 42 42 40 39 39 38 36 35 32 29 33 36 38 39 39 38 39 42
63 63 62 66 64 64 60 56 57 53 51 49 47 47 47 47 47 48 49 47 45 44 44 43 42 42 40 40 39 39 38 36 35 33 30 30 31 35 38 38 37 38 39
MSLP
1015.05 1015.06 1015.41 1015.76 1016.28 1016.78 1017.35 1017.77 1017.95 1018.03 1018.10 1018.01 1018.32 1018.35 1018.60 1018.89 1019.25 1019.65 1019.98 1020.04 1019.96 1020.10 1020.13 1020.24 1020.32 1020.49 1020.38 1020.39 1020.36 1020.17 1020.09 1020.10 1020.03 1020.01 1019.98 1019.87 1019.87 1019.92 1019.73 1019.77 1019.66 1019.69 1019.55
1014.12 1014.71 1014.86 1015.40 1016.48 1016.81 1017.38 1017.78 1018.06 1018.27 1018.46 1018.33 1018.54 1018.64 1018.79 1019.30 1019.70 1020.04 1020.17 1020.44 1020.09 1020.28 1020.47 1020.62 1020.51 1020.43 1020.59 1020.72 1020.52 1020.27 1020.20 1020.03 1019.92 1020.14 1020.17 1020.20 1020.12 1020.14 1020.16 1020.36 1020.10 1020.01 1019.97
1014.82 1014.98 1015.03 1015.05 1016.04 1016.53 1017.13 1017.58 1018.00 1018.64 1018.74 1018.90 1019.03 1019.04 1019.11 1019.62 1019.90 1020.22 1020.37 1020.70 1020.61 1020.52 1020.65 1020.79 1020.90 1020.79 1020.80 1020.98 1020.88 1020.57 1020.01 1020.09 1020.27 1020.30 1020.48 1020.66 1020.53 1020.46 1020.33 1020.53 1020.47 1020.62 1020.49
1014.71 1015.34 1015.54 1015.70 1015.67 1016.89 1017.37 1017.66 1018.03 1018.85 1018.98 1019.20 1019.42 1019.44 1019.49 1019.88 1020.11 1020.38 1020.46 1020.81 1020.75 1020.89 1020.99 1021.00 1021.07 1020.96 1021.04 1021.19 1021.27 1020.99 1020.67 1020.63 1020.85 1021.16 1021.06 1020.92 1020.65 1020.62 1020.79 1021.05 1020.99 1020.94 1020.80
1015.25 1015.54 1015.76 1016.03 1016.27 1017.13 1017.49 1018.00 1018.22 1019.04 1019.01 1019.39 1019.37 1019.56 1019.73 1020.07 1020.34 1020.51 1020.61 1020.99 1020.91 1021.20 1021.29 1021.29 1021.35 1021.17 1021.11 1021.23 1021.59 1021.13 1021.54 1021.33 1021.23 1021.58 1021.52 1021.21 1021.28 1021.08 1021.16 1021.21 1021.38 1021.45 1021.24
1015.79 1015.97 1016.26 1016.23 1016.63 1017.18 1017.74 1018.19 1018.50 1018.84 1019.24 1019.36 1019.51 1019.60 1020.05 1020.35 1020.53 1020.79 1021.11 1021.10 1021.30 1021.45 1021.51 1021.62 1021.65 1021.39 1021.39 1021.42 1021.63 1021.84 1021.57 1021.74 1021.77 1022.05 1021.74 1021.58 1021.51 1021.47 1021.31 1021.36 1021.52 1021.66 1021.34
1016.61 1016.67 1016.52 1016.77 1016.95 1017.33 1018.09 1018.20 1018.74 1018.93 1019.27 1019.39 1019.75 1019.85 1020.23 1020.47 1020.60 1020.90 1021.20 1021.42 1021.53 1021.65 1021.65 1021.70 1021.88 1021.78 1021.60 1021.93 1021.73 1022.09 1021.93 1022.04 1022.16 1022.43 1022.40 1022.05 1021.91 1021.96 1021.59 1021.54 1021.77 1021.77 1021.71
1017.25 1017.13 1017.39 1017.34 1017.88 1018.51 1018.60 1019.03 1018.82 1019.24 1019.31 1019.68 1019.87 1020.21 1020.51 1020.79 1020.95 1021.26 1021.59 1021.81 1021.83 1021.90 1021.96 1022.05 1022.03 1022.00 1021.81 1021.98 1022.06 1022.55 1022.34 1022.26 1022.68 1022.92 1022.85 1022.44 1022.12 1022.05 1021.95 1021.90 1021.87 1021.97 1021.96
1018.05 1017.55 1018.08 1018.67 1019.15 1019.43 1019.65 1019.04 1019.52 1019.60 1019.71 1019.83 1020.02 1020.42 1020.71 1021.01 1021.20 1021.49 1021.61 1021.78 1021.88 1021.98 1022.00 1022.18 1022.08 1022.14 1022.09 1021.99 1022.31 1022.62 1022.63 1022.77 1023.09 1023.27 1023.04 1022.92 1022.45 1022.30 1022.24 1022.26 1022.19 1022.34 1022.07
1018.41 1018.29 1019.27 1018.88 1019.30 1019.63 1020.36 1020.17 1019.81 1020.09 1019.96 1019.85 1020.24 1020.90 1021.06 1021.30 1021.37 1021.73 1021.63 1021.79 1022.08 1022.09 1022.03 1022.21 1022.29 1022.06 1022.05 1021.97 1022.37 1022.65 1022.80 1023.03 1023.12 1023.56 1023.42 1023.00 1022.68 1022.50 1022.50 1022.63 1022.55 1022.65 1022.60
1018.89 1019.15 1019.37 1019.36 1019.81 1020.28 1020.51 1020.07 1019.98 1020.41 1020.49 1020.54 1020.92 1021.10 1021.14 1021.41 1021.61 1021.93 1022.04 1022.20 1022.40 1022.31 1022.31 1022.49 1022.50 1022.50 1022.46 1022.41 1022.61 1022.80 1022.97 1023.26 1023.42 1023.59 1023.45 1023.08 1022.81 1022.70 1022.85 1022.89 1022.94 1022.94 1022.91
1018.73 1019.45 1018.76 1018.99 1019.37 1019.64 1020.11 1020.16 1020.33 1020.53 1020.49 1020.75 1020.99 1021.29 1021.43 1021.68 1022.01 1022.09 1022.08 1022.19 1022.31 1022.45 1022.51 1022.67 1022.77 1022.73 1022.83 1022.98 1023.09 1022.84 1023.34 1023.33 1023.37 1023.66 1023.35 1023.17 1022.98 1022.99 1022.85 1022.94 1023.15 1023.11 1023.12
1018.53 1019.40 1019.49 1019.12 1019.24 1019.81 1019.78 1020.09 1020.42 1020.81 1020.96 1021.04 1021.28 1021.54 1021.54 1021.73 1022.13 1022.30 1022.36 1022.49 1022.63 1022.55 1022.86 1023.06 1023.13 1023.18 1023.26 1023.40 1023.37 1023.39 1023.48 1023.53 1023.61 1023.64 1023.51 1023.22 1022.96 1023.00 1022.98 1022.89 1023.30 1023.39 1023.40
1018.93 1018.96 1019.46 1019.21 1019.16 1019.52 1019.68 1019.93 1020.32 1020.73 1021.06 1020.94 1021.29 1021.35 1021.70 1022.11 1022.61 1022.65 1022.69 1022.96 1023.00 1023.28 1023.31 1023.46 1023.46 1023.54 1023.49 1023.62 1023.63 1023.71 1023.64 1023.69 1023.91 1023.84 1023.61 1023.61 1023.13 1023.11 1022.97 1023.21 1023.48 1023.57 1023.63
1019.28 1019.11 1019.09 1019.14 1019.29 1019.58 1019.83 1019.96 1020.24 1020.85 1020.73 1020.83 1021.09 1021.27 1021.53 1022.07 1022.60 1022.75 1023.08 1023.25 1023.52 1023.40 1023.54 1023.57 1023.72 1023.93 1023.85 1023.85 1023.87 1023.87 1024.01 1024.14 1024.09 1024.09 1023.95 1023.54 1023.37 1023.42 1023.16 1023.21 1023.34 1023.54 1023.65
1019.10 1019.24 1019.11 1019.17 1019.47 1019.54 1019.88 1019.99 1020.44 1020.65 1020.73 1020.95 1021.33 1021.50 1021.70 1022.01 1022.58 1022.86 1023.31 1023.41 1023.50 1023.76 1023.73 1023.74 1023.91 1024.03 1024.14 1024.08 1024.19 1024.31 1024.40 1024.37 1024.31 1024.13 1024.03 1023.76 1023.54 1023.43 1023.35 1023.42 1023.48 1023.56 1023.66
1018.60 1018.80 1018.83 1019.06 1019.31 1019.67 1019.84 1020.34 1020.50 1020.68 1020.99 1021.43 1021.60 1021.81 1021.90 1022.07 1022.43 1023.15 1023.49 1023.66 1023.84 1023.61 1023.82 1024.10 1024.26 1024.29 1024.32 1024.31 1024.51 1024.49 1024.56 1024.60 1024.54 1024.39 1024.45 1024.31 1024.16 1023.87 1023.89 1023.88 1023.82 1023.77 1023.76
1018.29 1018.61 1018.81 1019.00 1019.49 1019.85 1020.18 1020.52 1020.90 1021.21 1021.36 1021.57 1021.74 1022.02 1021.96 1022.27 1022.68 1023.31 1023.63 1023.61 1023.74 1023.87 1024.15 1024.36 1024.51 1024.51 1024.64 1024.87 1025.01 1025.00 1024.77 1024.83 1025.12 1025.17 1025.09 1025.02 1024.88 1024.69 1024.53 1024.52 1024.19 1024.37 1024.41
1017.89 1018.32 1018.63 1019.08 1019.59 1019.95 1020.40 1020.71 1020.99 1021.27 1021.47 1021.83 1021.94 1022.04 1022.31 1022.45 1022.88 1023.47 1023.69 1023.87 1023.82 1024.10 1024.38 1024.57 1024.86 1024.98 1025.17 1025.11 1025.06 1025.21 1025.32 1025.69 1025.86 1025.65 1025.66 1025.59 1025.50 1025.15 1024.96 1024.79 1024.75 1024.67 1024.58
1017.64 1018.27 1018.74 1019.31 1019.55 1019.99 1020.14 1020.95 1021.60 1021.85 1022.04 1021.96 1022.00 1022.33 1022.45 1022.80 1023.07 1023.41 1023.64 1023.81 1023.93 1024.20 1024.62 1024.98 1025.25 1025.16 1025.22 1025.40 1025.47 1025.73 1025.86 1026.14 1026.27 1026.27 1026.22 1025.99 1025.98 1025.89 1025.67 1025.44 1025.27 1025.09 1024.76
1018.05 1018.26 1018.64 1019.15 1019.55 1019.84 1020.48 1021.18 1021.85 1022.08 1022.24 1022.32 1022.29 1022.41 1022.67 1022.74 1023.04 1023.38 1023.73 1024.02 1024.28 1024.60 1025.11 1025.11 1025.27 1025.51 1025.62 1025.75 1026.06 1026.32 1026.35 1026.55 1026.54 1026.63 1026.52 1026.58 1026.43 1026.26 1026.11 1025.98 1025.73 1025.59 1025.39
1017.56 1018.23 1018.90 1019.12 1019.52 1019.83 1020.25 1020.51 1020.84 1021.73 1022.38 1022.33 1022.54 1022.61 1022.55 1022.85 1023.17 1023.48 1023.95 1024.41 1024.65 1025.00 1025.30 1025.47 1025.65 1025.83 1026.04 1026.21 1026.51 1026.97 1027.19 1027.00 1026.72 1026.65 1026.73 1026.76 1026.84 1026.49 1026.42 1026.31 1026.08 1025.91 1025.66
1017.23 1017.71 1018.35 1018.81 1019.29 1019.65 1020.08 1020.58 1021.32 1022.04 1022.44 1022.75 1022.81 1022.89 1023.08 1023.13 1023.43 1023.73 1024.22 1024.69 1025.11 1025.32 1025.52 1025.60 1025.69 1025.96 1026.30 1026.64 1026.43 1026.71 1027.44 1027.70 1027.56 1027.12 1026.91 1026.86 1026.65 1026.47 1026.44 1026.46 1026.25 1026.07 1025.81
1016.38 1016.82 1017.46 1018.13 1018.78 1019.15 1019.55 1020.32 1020.92 1021.49 1022.07 1022.52 1022.76 1023.10 1023.43 1023.57 1023.86 1024.21 1024.57 1024.90 1025.22 1025.45 1025.57 1025.48 1025.43 1025.90 1026.14 1026.69 1026.84 1026.69 1026.74 1026.96 1027.39 1027.69 1027.04 1026.66 1026.55 1026.54 1026.34 1026.38 1026.19 1026.03 1025.89
1015.93 1016.51 1016.84 1017.56 1018.40 1019.01 1019.26 1019.76 1020.52 1021.38 1021.73 1022.33 1022.99 1023.57 1023.97 1024.20 1024.38 1024.60 1024.85 1025.04 1025.11 1025.36 1025.90 1025.89 1025.78 1025.96 1026.34 1026.76 1026.83 1026.88 1026.94 1026.95 1026.97 1027.22 1027.22 1026.88 1026.48 1026.02 1025.97 1025.93 1025.80 1025.85 1025.54
1016.13 1016.44 1017.03 1017.20 1017.95 1018.61 1019.09 1019.48 1020.16 1021.04 1021.92 1022.87 1023.52 1023.93 1024.19 1024.43 1024.68 1024.82 1024.91 1025.06 1025.46 1025.51 1025.64 1025.89 1025.78 1026.17 1026.36 1026.46 1026.66 1026.87 1026.94 1027.07 1027.19 1027.33 1027.39 1027.10 1026.88 1026.40 1025.73 1025.50 1025.62 1025.52 1025.33
Wind_Speed
11 14 17 19 19 18 16 16 17 18 19 21 21 21 22 21 20 18 17 16 17 18 20 19 19 19 19 18 17 14 12 11 10 11 13 13 16 15 16 14 11 9 13
17 16 22 23 20 20 18 18 17 18 18 20 21 21 21 20 18 17 17 16 18 20 19 18 18 19 19 18 16 15 14 10 9 9 12 15 15 16 18 16 12 11 13
13 14 17 25 23 22 20 19 19 18 19 20 21 20 21 19 18 17 17 16 17 19 18 17 17 18 18 17 16 17 17 15 11 11 12 5 7 16 16 15 16 14 14
13 11 14 21 24 21 20 20 20 18 19 19 19 20 20 19 18 17 17 17 17 18 17 16 16 16 16 15 16 20 19 19 16 11 5 5 8 16 16 16 16 15 15
10 10 14 20 22 20 20 20 20 18 18 18 19 19 19 19 19 18 17 16 17 16 15 14 14 15 14 14 18 17 15 12 12 8 5 6 5 12 14 14 13 14 14
9 10 14 18 21 21 21 20 19 18 17 17 18 18 19 19 19 17 15 16 16 14 13 12 12 12 12 15 17 16 14 11 11 7 7 7 6 12 13 13 13 12 12
7 8 11 16 19 22 21 19 18 17 17 17 17 18 18 18 18 16 15 14 13 12 10 10 9 9 12 12 14 17 15 12 7 6 6 5 6 11 13 13 11 11 12
11 13 11 19 20 12 17 15 15 15 16 16 16 16 17 16 15 14 13 11 10 8 6 7 8 9 10 10 11 14 13 11 8 6 6 5 8 10 12 12 11 10 9
11 9 17 14 15 13 7 11 11 13 14 14 15 15 15 14 13 12 12 10 8 6 5 7 8 8 6 9 9 12 11 11 7 4 5 3 8 12 12 13 14 14 14
12 15 18 14 9 1 6 7 10 11 12 13 13 12 12 11 11 10 10 9 7 5 4 6 6 7 8 10 9 10 12 10 7 4 3 3 9 12 12 14 15 17 17
11 15 15 15 13 9 6 7 9 8 9 10 10 11 8 4 5 6 4 6 5 2 4 8 8 9 10 12 12 11 11 4 4 3 2 6 8 10 11 13 14 15 17
12 11 13 13 11 7 7 5 4 5 4 5 6 5 4 5 4 4 6 5 4 5 7 11 11 13 9 5 4 8 4 4 4 2 1 3 6 7 8 9 11 13 14
8 5 9 10 5 11 6 3 3 2 3 3 5 5 4 4 4 3 3 4 4 9 5 5 5 4 6 4 4 4 5 5 3 2 3 3 4 4 4 7 8 11 13
6 8 6 7 7 5 4 5 4 3 2 3 5 7 5 4 4 4 3 4 5 3 5 4 4 5 6 6 6 6 6 5 4 3 4 8 5 2 4 6 8 9 10
7 7 10 8 9 5 5 4 4 4 5 5 5 5 5 5 5 4 4 4 4 4 3 4 4 4 5 5 5 7 6 6 6 3 3 10 7 3 3 6 7 6 8
8 10 9 6 6 7 6 6 4 4 4 4 4 5 6 5 5 5 4 4 4 3 3 4 4 4 5 5 6 5 5 5 6 6 3 5 8 1 3 6 6 6 6
11 9 8 8 7 7 8 6 5 5 5 5 5 6 6 6 6 6 4 4 3 3 5 5 4 4 4 3 6 5 5 6 5 7 6 7 6 6 6 7 6 6 7
13 11 7 10 8 8 7 5 5 4 4 4 5 4 7 6 7 5 4 4 4 5 4 3 4 4 4 4 2 4 4 6 6 6 5 6 5 5 6 14 12 10 9
13 8 8 8 8 9 7 5 5 6 5 4 5 4 6 7 7 5 4 4 5 5 5 3 4 3 2 3 2 4 4 5 5 5 6 6 6 5 5 7 7 5 3
11 10 10 7 9 8 7 5 4 4 3 3 4 4 7 5 7 6 5 5 5 4 4 3 3 3 2 2 2 3 2 4 4 5 5 5 5 6 5 6 4 4 5
8 12 12 11 7 8 6 6 4 4 3 3 4 6 7 7 6 6 4 5 4 4 3 2 2 3 3 3 2 3 3 4 4 4 4 4 6 5 6 5 4 2 3
15 13 10 11 9 7 6 3 4 6 2 3 4 5 6 7 6 6 6 5 6 4 5 4 2 1 1 4 3 2 2 4 4 4 4 3 4 3 5 6 5 5 3
16 17 14 13 12 9 6 5 4 4 3 3 2 4 4 7 7 7 7 6 5 3 2 1 2 2 1 3 5 4 1 3 1 2 3 2 5 5 5 5 5 6 6
16 16 16 13 10 10 12 8 14 9 7 3 3 3 4 5 7 6 6 6 4 2 2 1 4 2 3 2 1 2 1 4 4 3 3 2 2 3 4 3 4 5 4
16 14 15 10 8 7 10 12 10 6 3 4 4 7 5 5 6 6 6 5 6 4 4 5 5 6 3 2 1 1 1 1 1 2 3 3 2 2 2 2 3 3 5
10 10 8 11 9 11 10 9 12 12 10 7 5 4 4 4 4 5 5 5 4 5 5 4 5 5 3 3 2 2 3 2 2 1 2 4 3 4 3 2 3 4 5
Wind_Direction
155 139 131 121 117 114 112 111 110 107 106 103 100 98 96 95 95 94 90 88 87 81 76 70 62 54 52 50 46 35 33 51 65 66 66 56 48 44 46 49 48 47 51
143 148 137 127 126 122 121 118 113 110 108 107 107 104 102 100 99 95 94 92 89 83 76 68 62 57 49 42 35 24 25 44 83 91 82 65 57 60 52 43 42 49 45
142 142 136 133 133 130 127 120 116 114 112 111 111 107 105 104 103 101 98 92 89 86 79 70 60 56 51 41 29 27 32 70 98 111 85 75 64 57 54 50 47 43 42
139 142 133 129 126 128 125 120 117 120 118 114 112 109 107 107 108 105 101 99 94 88 82 71 57 49 42 35 37 33 51 60 58 47 55 63 68 63 56 46 43 41 36
129 131 134 129 123 127 123 123 119 124 120 122 116 114 111 111 110 107 106 104 98 95 86 73 56 42 34 29 44 38 45 67 72 68 50 64 55 64 61 56 45 38 39
125 132 133 127 129 130 123 125 127 128 125 123 119 115 115 114 113 109 108 106 103 99 89 75 57 40 36 27 34 38 35 67 62 44 42 41 60 73 70 58 45 36 39
93 129 124 131 134 129 128 125 129 125 127 119 123 120 122 123 120 116 113 111 107 100 92 77 61 36 24 36 34 33 34 76 76 69 53 36 46 56 62 61 49 43 34
71 80 88 90 91 94 121 121 119 124 120 130 127 126 126 126 121 118 115 110 106 102 92 77 57 47 24 29 38 50 37 88 64 45 30 21 46 51 49 49 44 31 23
73 50 73 73 88 96 28 83 112 126 137 133 133 136 131 129 126 122 119 117 120 119 105 80 66 57 38 36 46 53 59 84 71 44 26 352 43 48 48 48 42 34 32
111 101 114 100 79 103 188 159 143 153 151 144 134 130 125 127 124 130 133 135 140 122 77 79 86 69 47 79 73 61 76 86 73 56 17 351 43 51 51 54 56 52 45
146 139 138 140 168 197 176 178 154 161 138 118 122 131 121 131 126 115 123 96 63 37 355 28 30 40 52 48 64 64 72 74 99 62 16 21 31 47 53 62 64 64 59
133 151 151 154 161 172 184 158 164 163 144 142 140 129 109 113 115 114 105 91 46 29 26 50 74 63 61 62 48 59 55 68 77 119 161 55 44 46 74 78 76 72 69
141 137 160 173 170 176 161 149 152 142 127 144 119 131 147 112 90 88 86 54 52 67 65 62 59 59 66 59 52 56 41 29 36 347 339 18 50 41 74 96 89 78 71
158 161 192 201 175 181 154 163 169 144 149 136 154 140 122 112 119 89 79 78 71 71 81 73 71 73 59 62 65 55 41 43 31 17 352 329 345 347 78 85 86 79 65
192 192 203 203 180 175 159 159 148 144 153 139 131 122 120 106 100 101 86 84 87 86 90 80 70 65 58 46 41 44 45 39 31 24 4 354 330 331 86 120 107 87 77
192 198 197 171 174 157 156 131 134 142 103 85 81 104 105 111 110 93 95 86 69 65 64 72 79 67 57 48 39 40 59 42 36 37 25 355 338 346 116 103 87 75 74
177 182 166 162 157 138 125 126 116 112 100 102 112 109 117 115 109 115 104 93 99 65 73 66 52 55 56 38 50 55 35 27 34 42 33 30 11 36 75 81 71 74 66
171 170 156 155 145 132 125 114 109 115 118 123 118 121 108 107 113 110 112 82 69 72 87 63 35 36 40 42 42 32 31 44 41 34 41 35 20 27 5 41 57 54 42
170 155 148 143 136 125 124 119 117 124 112 126 115 107 115 101 116 106 93 79 80 65 55 38 30 52 44 24 27 47 49 56 47 44 38 39 25 25 42 52 56 83 77
164 155 151 144 141 140 127 111 86 96 98 118 113 120 110 102 105 97 81 74 69 66 46 37 57 23 46 15 30 42 38 81 47 52 36 41 39 40 16 10 1 350 20
163 157 162 152 162 138 139 137 128 141 134 111 111 120 120 109 99 96 94 86 69 68 42 35 48 26 359 20 57 3 360 67 80 53 32 45 28 31 38 24 4 23 343
166 167 167 164 166 161 159 155 132 144 165 136 135 112 100 102 106 94 89 72 59 59 37 21 25 349 39 18 125 113 3 333 358 15 42 59 26 26 23 8 11 8 342
168 168 174 178 176 173 151 110 89 74 75 88 87 88 95 109 107 103 100 96 83 89 63 350 12 108 163 37 31 139 79 225 328 315 25 17 19 17 359 7 1 347 350
177 178 179 183 180 179 160 155 166 171 161 167 135 126 116 111 102 102 98 96 94 73 61 90 82 106 109 108 29 53 131 165 188 285 310 355 20 10 336 337 331 330 334
176 177 182 168 167 184 175 171 168 141 131 114 110 123 116 93 104 105 105 97 76 75 88 109 97 89 95 131 167 248 290 222 139 149 226 284 309 276 265 276 305 301 309
179 176 181 157 163 172 165 152 161 148 141 132 136 134 133 112 92 80 85 78 84 129 131 138 119 120 141 143 158 173 179 182 237 213 253 265 229 274 241 290 330 308 298